SCP
0 0 0 0 0 0 0 0 0 0 0 0 0 0 0 0 0 0 0 0 0 0 0 0 0 0 0 0 0 0 0 0 0 0 0 0 0 0 0 0 0 0 0
0 0 0 0 0 0 0 0 0 0 0 0 0 0 0 0 0 0 0 0 0 0 0 0 0 0 0 0 0 0 0 0 0 0 0 0 0 0 0 0 0 0 0
0 0 0 0 0 0 0 0 0 0 0 0 0 0 0 0 0 0 0 0 0 0 0 0 0 0 0 0 0 0 0 0 0 0 0 0 0 0 0 0 0 0 0
0 0 0 0 0 0 0 0 0 0 0 0 0 0 0 0 0 0 0 0 0 0 0 0 0 0 0 0 0 0 0 0 0 0 0 0 0 0 0 0 0 0 0
0 0 0 0 0 0 0 0 0 0 0 0 0 0 0 0 0 0 0 0 0 0 0 0 0 0 0 0 0 0 0 0 0 0 0 0 0 0 0 0 0 0 0
0 0 0 0 0 0 0 0 0 0 0 0 0 0 0 0 0 0 0 0 0 0 0 0 0 0 0 0 0 0 0 0 0 0 0 0 0 0 0 0 0 0 0
0 0 0 0 0 0 0 0 0 0 0 0 0 0 0 0 0 0 0 0 0 0 0 0 0 0 0 0 0 0 0 0 0 0 0 0 0 0 0 0 0 0 0
0 0 0 0 0 0 0 0 0 0 0 0 0 0 0 0 0 0 0 0 0 0 0 0 0 0 0 0 0 0 0 0 0 0 0 0 0 0 0 0 0 0 0
0 0 0 0 0 0 0 0 0 0 0 0 0 0 0 0 0 0 0 0 0 0 0 0 0 0 0 0 0 0 0 0 0 0 0 0 0 0 0 0 0 0 0
0 0 0 0 0 0 0 0 0 0 0 0 0 0 0 0 0 0 0 0 0 0 0 0 0 0 0 0 0 0 0 0 0 0 0 0 0 0 0 0 0 0 0
0 0 0 0 0 0 0 0 0 0 0 0 0 0 0 0 0 0 0 0 0 0 0 0 0 0 0 0 0 0 0 0 0 0 0 0 0 0 0 0 0 0 0
0 0 0 0 0 0 0 0 0 0 0 0 0 0 0 0 0 0 0 0 0 0 0 0 0 0 0 0 0 0 0 0 0 0 0 0 0 0 0 0 0 0 0
0 0 0 0 0 0 0 0 0 0 0 0 0 0 0 0 0 0 0 0 0 0 0 0 0 0 0 0 0 0 0 0 0 0 0 0 0 0 0 0 0 0 0
0 0 0 0 0 0 0 0 0 0 0 0 0 0 0 0 0 0 0 0 0 0 0 0 0 0 0 0 0 0 0 0 0 0 0 0 0 0 0 0 0 0 0
0 0 0 0 0 0 0 0 0 0 0 0 0 0 0 0 0 0 0 0 0 0 0 0 0 0 0 0 0 0 0 0 0 0 0 0 0 0 0 0 0 0 0
0 0 0 0 0 0 0 0 0 0 0 0 0 0 0 0 0 0 0 0 0 0 0 0 0 0 0 0 0 0 0 0 0 0 0 0 0 0 0 0 0 0 0
0 0 0 0 0 0 0 0 0 0 0 0 0 0 0 0 0 0 0 0 0 0 0 0 0 0 0 0 0 0 0 0 0 0 0 0 0 0 0 0 0 0 0
0 0 0 0 0 0 0 0 0 0 0 0 0 0 0 0 0 0 0 0 0 0 0 0 0 0 0 0 0 0 0 0 0 0 0 0 0 0 0 0 0 0 0
0 0 0 0 0 0 0 0 0 0 0 0 0 0 0 0 0 0 0 0 0 0 0 0 0 0 0 0 0 0 0 0 0 0 0 0 0 0 0 0 0 0 0
0 0 0 0 0 0 0 0 0 0 0 0 0 0 0 0 0 0 0 0 0 0 0 0 0 0 0 0 0 0 0 0 0 0 0 0 0 0 0 0 0 0 0
0 0 0 0 0 0 0 0 0 0 0 0 0 0 0 0 0 0 0 0 0 0 0 0 0 0 0 0 0 0 0 0 0 0 0 0 0 0 0 0 0 0 0
0 0 0 0 0 0 0 0 0 0 0 0 0 0 0 0 0 0 0 0 0 0 0 0 0 0 0 0 0 0 0 0 0 0 0 0 0 0 0 0 0 0 0
0 0 0 0 0 0 0 0 0 0 0 0 0 0 0 0 0 0 0 0 0 0 0 0 0 0 0 0 0 0 0 0 0 0 0 0 0 0 0 0 0 0 0
0 0 0 0 0 0 0 0 0 0 0 0 0 0 0 0 0 0 0 0 0 0 0 0 0 0 0 0 0 0 0 0 0 0 0 0 0 0 0 0 0 0 0
0 0 0 0 0 0 0 0 0 0 0 0 0 0 0 0 0 0 0 0 0 0 0 0 0 0 0 0 0 0 0 0 0 0 0 0 0 0 0 0 0 0 -0
0 0 0 0 0 0 0 0 0 0 0 0 0 0 0 0 0 0 0 0 0 0 0 0 0 0 0 0 0 0 0 0 0 0 0 0 0 0 0 0 0 -0 -0
Wind_Speed_500mb
57 57 56 57 62 62 69 71 73 75 81 75 75 75 77 75 70 65 59 53 46 40 34 28 22 17 10 11 11 12 13 13 12 16 20 25 27 33 37 42 46 50 53
53 56 55 55 62 64 68 69 73 75 82 80 78 81 80 78 72 64 57 50 43 37 31 25 20 9 15 16 16 16 18 18 19 23 29 33 36 39 45 50 54 58 62
58 59 59 64 65 66 68 69 74 77 82 81 81 84 84 79 74 66 56 49 43 35 26 20 6 23 20 21 22 20 21 23 26 30 36 41 46 48 53 58 62 65 68
62 65 61 66 66 66 63 66 72 76 81 81 86 88 88 82 74 66 59 50 42 34 24 14 19 19 28 26 25 24 25 27 32 35 41 46 50 52 57 64 70 71 76
64 69 67 65 69 73 68 68 68 74 79 84 91 94 90 82 75 67 59 51 44 35 23 20 25 33 29 29 30 30 32 34 37 41 47 50 54 57 60 66 76 80 84
66 70 71 68 71 77 72 71 72 75 80 88 94 97 93 84 74 65 57 53 47 34 25 34 25 33 32 36 37 38 40 42 43 48 51 56 58 62 65 71 78 81 84
68 69 72 74 76 77 74 73 73 76 79 88 95 99 89 80 73 65 60 54 46 35 35 31 33 35 38 43 46 47 49 50 51 55 59 62 67 67 71 75 75 77 76
64 69 70 74 77 75 76 71 74 77 80 88 97 92 82 80 75 69 63 59 50 44 44 36 37 40 41 48 54 57 57 56 57 57 63 68 70 71 69 66 70 74 76
53 60 65 71 74 73 73 70 75 77 79 83 86 87 86 81 75 71 66 56 56 52 49 43 41 46 44 51 60 63 64 66 64 63 66 68 69 67 53 57 62 67 89
40 44 48 56 62 66 69 71 73 71 68 74 76 80 79 78 76 71 65 56 63 57 55 52 48 50 49 52 62 64 71 73 72 73 71 67 62 60 57 62 65 72 76
23 25 32 40 46 52 58 61 59 58 60 70 73 76 72 74 71 66 68 75 70 59 58 57 52 51 55 57 63 65 70 71 71 70 71 71 71 69 64 59 68 71 72
13 16 21 26 35 41 45 49 48 43 47 53 63 68 70 69 66 69 79 75 70 61 55 59 55 57 55 62 62 63 62 51 57 63 66 71 75 77 76 75 72 69 72
16 16 15 15 19 26 32 36 39 44 52 61 64 70 70 71 74 78 80 73 63 64 59 55 57 60 59 60 60 56 51 57 61 64 69 73 75 76 77 78 74 71 73
20 23 24 26 28 30 33 36 45 45 49 54 56 61 66 72 77 78 89 77 63 62 64 63 61 57 60 64 59 53 54 56 57 60 67 72 75 78 78 72 69 67 66
21 19 18 18 20 25 29 32 37 40 42 42 52 57 64 72 77 71 61 58 58 54 56 58 57 58 58 53 52 51 51 57 60 61 64 66 67 68 67 64 62 58 55
22 21 20 20 22 24 27 31 35 34 36 40 43 49 56 58 52 50 51 50 49 50 54 54 54 51 47 46 49 53 54 55 57 58 57 56 54 54 55 49 49 47 48
14 17 18 20 23 24 26 29 30 34 34 34 37 38 40 41 42 41 40 46 47 46 47 45 43 43 45 46 48 50 53 53 53 51 49 47 45 45 45 42 42 43 45
14 14 15 16 18 20 23 26 27 28 31 38 39 38 36 37 38 37 43 42 36 38 39 39 41 41 41 42 44 47 46 46 44 43 40 39 37 39 40 41 40 42 43
13 13 16 18 18 19 21 24 25 27 30 29 27 26 32 33 38 40 37 34 35 37 37 37 37 37 38 40 39 39 39 37 37 38 35 35 35 38 38 36 37 36 39
13 15 16 17 19 22 24 28 31 33 35 36 35 33 32 35 33 28 34 34 35 36 36 35 34 35 36 35 34 33 31 31 32 33 33 32 32 33 34 33 32 34 32
18 18 19 21 22 24 27 30 32 35 37 37 37 38 39 38 38 37 35 36 38 37 36 34 33 32 31 30 29 29 28 27 30 32 32 31 30 30 30 29 30 30 30
19 19 19 20 22 24 27 30 33 35 38 41 43 44 48 42 42 39 39 37 36 35 34 31 29 28 26 26 26 26 26 26 28 32 31 31 31 31 30 29 28 29 28
18 16 16 19 21 24 28 31 34 37 39 41 42 44 45 38 38 38 39 38 36 35 32 29 27 26 25 24 26 27 25 25 28 30 30 30 30 31 30 30 28 28 28
18 19 21 24 26 28 30 32 34 37 38 41 43 44 44 43 42 40 40 40 38 37 35 31 28 27 26 25 27 27 26 25 28 30 31 31 30 32 31 30 28 27 29
19 20 22 24 25 28 30 32 34 37 39 41 42 43 44 44 44 42 42 42 39 37 35 34 32 29 25 27 27 27 26 26 27 28 30 32 32 34 33 31 31 30 30
18 19 22 24 27 29 32 34 35 38 39 41 42 44 45 45 43 42 43 43 40 37 37 38 36 33 30 29 26 24 24 25 26 28 29 32 31 33 34 33 32 33 32
Wind_Direction_500mb
234 234 232 229 227 228 231 237 232 224 222 213 213 208 203 200 201 201 201 201 200 199 196 195 194 199 210 232 240 257 271 281 283 287 294 302 302 295 293 295 296 299 306
235 235 232 228 225 228 230 237 230 232 223 213 210 206 205 202 201 202 203 201 201 200 198 194 191 217 244 247 257 268 279 288 292 297 301 302 303 305 302 302 307 310 308
236 236 231 226 224 225 230 233 234 233 225 216 210 208 206 205 203 201 201 201 196 192 190 184 240 254 244 257 264 273 285 292 297 301 303 306 307 311 313 312 309 307 307
239 238 236 230 228 227 235 234 238 231 225 218 212 209 209 207 204 202 197 195 192 186 178 212 235 250 255 258 269 278 286 292 294 300 300 303 308 313 311 310 308 310 311
240 239 239 233 229 229 232 236 235 231 225 218 213 210 208 206 204 201 198 195 191 183 208 210 237 248 251 261 270 279 285 287 290 293 294 300 305 308 309 310 309 312 314
241 238 239 236 232 232 234 234 235 233 226 218 212 213 208 205 202 203 201 196 188 207 207 229 236 247 259 267 271 275 279 284 287 288 293 295 301 302 307 308 309 311 310
246 241 237 235 233 232 234 238 236 234 229 220 213 212 208 205 203 201 201 198 206 227 238 226 237 251 264 271 273 274 277 281 286 290 293 296 300 303 306 305 305 302 301
245 241 237 236 235 232 232 236 237 234 229 221 214 211 209 208 206 203 202 202 222 246 247 227 240 252 263 272 275 275 278 281 286 286 289 294 296 299 298 302 301 297 299
244 242 239 235 235 233 234 236 237 234 228 221 214 213 212 210 208 207 205 208 232 255 247 232 238 252 262 272 275 278 281 283 284 286 287 291 295 297 293 287 287 289 294
242 243 240 238 237 238 237 237 237 233 228 216 215 216 215 214 214 211 207 225 239 254 251 240 239 252 265 272 275 279 282 286 288 290 292 292 293 294 294 293 295 293 293
239 238 236 234 235 236 237 238 236 232 222 211 213 217 217 219 218 217 220 234 252 255 254 245 246 257 265 272 273 279 285 289 292 296 299 299 300 301 300 296 297 295 283
202 214 218 222 224 228 232 233 235 229 219 213 215 219 221 219 225 228 232 244 258 255 256 255 253 257 267 269 276 282 284 286 285 288 289 292 294 296 296 293 294 291 280
159 171 177 192 212 226 230 229 219 221 214 218 219 213 218 222 227 229 234 249 255 256 257 256 260 264 271 277 278 276 268 275 282 287 290 292 295 296 296 295 294 289 287
164 163 166 175 187 198 205 209 220 229 224 222 222 224 225 224 229 232 246 250 252 249 253 259 264 268 271 276 281 281 282 285 289 293 293 294 295 296 295 294 294 294 292
143 144 154 168 183 195 207 222 223 228 233 233 226 226 227 227 234 248 247 253 256 251 250 253 258 264 269 272 276 280 287 291 294 296 297 297 295 294 295 295 295 296 292
149 148 160 171 183 195 204 212 217 220 229 236 238 242 249 251 247 242 247 247 244 241 248 253 258 262 266 273 282 288 294 299 301 301 301 302 302 300 298 297 298 296 292
165 166 173 184 190 190 191 203 210 210 218 225 229 232 235 238 239 239 238 239 242 248 250 251 254 262 273 282 288 294 299 302 304 305 308 312 312 309 304 300 299 296 295
163 170 176 187 189 193 199 206 212 219 223 227 229 227 230 230 234 233 237 247 245 245 248 254 264 272 277 283 290 294 297 301 306 310 313 314 314 313 313 309 301 301 301
163 172 180 184 183 189 199 206 215 218 220 223 222 222 223 228 231 238 251 247 246 249 257 263 266 273 280 285 288 293 298 306 311 312 315 314 313 310 313 312 309 305 304
191 195 202 208 212 214 216 218 219 221 225 227 229 231 234 241 245 241 243 247 253 256 257 263 269 275 279 283 290 297 304 307 307 309 312 315 314 314 314 313 313 311 309
206 209 213 218 220 224 227 229 230 231 234 235 236 240 241 243 246 246 247 246 247 252 256 260 264 268 275 282 290 295 301 302 302 304 309 311 311 310 308 309 310 308 308
221 217 218 220 224 227 229 230 232 235 237 238 239 239 242 243 246 249 249 250 253 253 254 256 261 266 273 280 285 292 298 300 299 302 305 304 304 304 304 305 305 304 303
233 234 237 238 237 236 235 235 235 235 236 237 238 241 248 248 247 249 252 254 254 256 256 256 259 265 268 273 282 288 294 296 297 300 301 300 300 298 299 300 301 301 298
240 241 239 239 237 236 236 235 236 238 240 242 244 247 249 250 250 252 253 255 254 254 255 257 257 257 262 272 280 288 294 297 297 297 298 299 299 296 295 295 295 294 293
244 244 244 244 246 249 249 249 249 249 249 250 250 249 249 250 250 250 250 252 253 255 259 261 261 261 264 268 274 282 290 293 294 295 296 296 297 293 291 288 288 286 287
254 257 259 260 260 260 261 261 259 256 254 252 251 251 252 253 254 255 255 255 255 256 259 261 263 264 263 264 268 274 280 285 288 291 294 296 297 294 289 287 284 284 283
Wind_Speed_850mb
57 57 56 57 62 62 69 71 73 75 81 75 75 75 77 75 70 65 59 53 46 40 34 28 22 17 10 11 11 12 13 13 12 16 20 25 27 33 37 42 46 50 53
53 56 55 55 62 64 68 69 73 75 82 80 78 81 80 78 72 64 57 50 43 37 31 25 20 9 15 16 16 16 18 18 19 23 29 33 36 39 45 50 54 58 62
58 59 59 64 65 66 68 69 74 77 82 81 81 84 84 79 74 66 56 49 43 35 26 20 6 23 20 21 22 20 21 23 26 30 36 41 46 48 53 58 62 65 68
62 65 61 66 66 66 63 66 72 76 81 81 86 88 88 82 74 66 59 50 42 34 24 14 19 19 28 26 25 24 25 27 32 35 41 46 50 52 57 64 70 71 76
64 69 67 65 69 73 68 68 68 74 79 84 91 94 90 82 75 67 59 51 44 35 23 20 25 33 29 29 30 30 32 34 37 41 47 50 54 57 60 66 76 80 84
66 70 71 68 71 77 72 71 72 75 80 88 94 97 93 84 74 65 57 53 47 34 25 34 25 33 32 36 37 38 40 42 43 48 51 56 58 62 65 71 78 81 84
68 69 72 74 76 77 74 73 73 76 79 88 95 99 89 80 73 65 60 54 46 35 35 31 33 35 38 43 46 47 49 50 51 55 59 62 67 67 71 75 75 77 76
64 69 70 74 77 75 76 71 74 77 80 88 97 92 82 80 75 69 63 59 50 44 44 36 37 40 41 48 54 57 57 56 57 57 63 68 70 71 69 66 70 74 76
53 60 65 71 74 73 73 70 75 77 79 83 86 87 86 81 75 71 66 56 56 52 49 43 41 46 44 51 60 63 64 66 64 63 66 68 69 67 53 57 62 67 89
40 44 48 56 62 66 69 71 73 71 68 74 76 80 79 78 76 71 65 56 63 57 55 52 48 50 49 52 62 64 71 73 72 73 71 67 62 60 57 62 65 72 76
23 25 32 40 46 52 58 61 59 58 60 70 73 76 72 74 71 66 68 75 70 59 58 57 52 51 55 57 63 65 70 71 71 70 71 71 71 69 64 59 68 71 72
13 16 21 26 35 41 45 49 48 43 47 53 63 68 70 69 66 69 79 75 70 61 55 59 55 57 55 62 62 63 62 51 57 63 66 71 75 77 76 75 72 69 72
16 16 15 15 19 26 32 36 39 44 52 61 64 70 70 71 74 78 80 73 63 64 59 55 57 60 59 60 60 56 51 57 61 64 69 73 75 76 77 78 74 71 73
20 23 24 26 28 30 33 36 45 45 49 54 56 61 66 72 77 78 89 77 63 62 64 63 61 57 60 64 59 53 54 56 57 60 67 72 75 78 78 72 69 67 66
21 19 18 18 20 25 29 32 37 40 42 42 52 57 64 72 77 71 61 58 58 54 56 58 57 58 58 53 52 51 51 57 60 61 64 66 67 68 67 64 62 58 55
22 21 20 20 22 24 27 31 35 34 36 40 43 49 56 58 52 50 51 50 49 50 54 54 54 51 47 46 49 53 54 55 57 58 57 56 54 54 55 49 49 47 48
14 17 18 20 23 24 26 29 30 34 34 34 37 38 40 41 42 41 40 46 47 46 47 45 43 43 45 46 48 50 53 53 53 51 49 47 45 45 45 42 42 43 45
14 14 15 16 18 20 23 26 27 28 31 38 39 38 36 37 38 37 43 42 36 38 39 39 41 41 41 42 44 47 46 46 44 43 40 39 37 39 40 41 40 42 43
13 13 16 18 18 19 21 24 25 27 30 29 27 26 32 33 38 40 37 34 35 37 37 37 37 37 38 40 39 39 39 37 37 38 35 35 35 38 38 36 37 36 39
13 15 16 17 19 22 24 28 31 33 35 36 35 33 32 35 33 28 34 34 35 36 36 35 34 35 36 35 34 33 31 31 32 33 33 32 32 33 34 33 32 34 32
18 18 19 21 22 24 27 30 32 35 37 37 37 38 39 38 38 37 35 36 38 37 36 34 33 32 31 30 29 29 28 27 30 32 32 31 30 30 30 29 30 30 30
19 19 19 20 22 24 27 30 33 35 38 41 43 44 48 42 42 39 39 37 36 35 34 31 29 28 26 26 26 26 26 26 28 32 31 31 31 31 30 29 28 29 28
18 16 16 19 21 24 28 31 34 37 39 41 42 44 45 38 38 38 39 38 36 35 32 29 27 26 25 24 26 27 25 25 28 30 30 30 30 31 30 30 28 28 28
18 19 21 24 26 28 30 32 34 37 38 41 43 44 44 43 42 40 40 40 38 37 35 31 28 27 26 25 27 27 26 25 28 30 31 31 30 32 31 30 28 27 29
19 20 22 24 25 28 30 32 34 37 39 41 42 43 44 44 44 42 42 42 39 37 35 34 32 29 25 27 27 27 26 26 27 28 30 32 32 34 33 31 31 30 30
18 19 22 24 27 29 32 34 35 38 39 41 42 44 45 45 43 42 43 43 40 37 37 38 36 33 30 29 26 24 24 25 26 28 29 32 31 33 34 33 32 33 32
Wind_Direction_850mb
234 234 232 229 227 228 231 237 232 224 222 213 213 208 203 200 201 201 201 201 200 199 196 195 194 199 210 232 240 257 271 281 283 287 294 302 302 295 293 295 296 299 306
235 235 232 228 225 228 230 237 230 232 223 213 210 206 205 202 201 202 203 201 201 200 198 194 191 217 244 247 257 268 279 288 292 297 301 302 303 305 302 302 307 310 308
236 236 231 226 224 225 230 233 234 233 225 216 210 208 206 205 203 201 201 201 196 192 190 184 240 254 244 257 264 273 285 292 297 301 303 306 307 311 313 312 309 307 307
239 238 236 230 228 227 235 234 238 231 225 218 212 209 209 207 204 202 197 195 192 186 178 212 235 250 255 258 269 278 286 292 294 300 300 303 308 313 311 310 308 310 311
240 239 239 233 229 229 232 236 235 231 225 218 213 210 208 206 204 201 198 195 191 183 208 210 237 248 251 261 270 279 285 287 290 293 294 300 305 308 309 310 309 312 314
241 238 239 236 232 232 234 234 235 233 226 218 212 213 208 205 202 203 201 196 188 207 207 229 236 247 259 267 271 275 279 284 287 288 293 295 301 302 307 308 309 311 310
246 241 237 235 233 232 234 238 236 234 229 220 213 212 208 205 203 201 201 198 206 227 238 226 237 251 264 271 273 274 277 281 286 290 293 296 300 303 306 305 305 302 301
245 241 237 236 235 232 232 236 237 234 229 221 214 211 209 208 206 203 202 202 222 246 247 227 240 252 263 272 275 275 278 281 286 286 289 294 296 299 298 302 301 297 299
244 242 239 235 235 233 234 236 237 234 228 221 214 213 212 210 208 207 205 208 232 255 247 232 238 252 262 272 275 278 281 283 284 286 287 291 295 297 293 287 287 289 294
242 243 240 238 237 238 237 237 237 233 228 216 215 216 215 214 214 211 207 225 239 254 251 240 239 252 265 272 275 279 282 286 288 290 292 292 293 294 294 293 295 293 293
239 238 236 234 235 236 237 238 236 232 222 211 213 217 217 219 218 217 220 234 252 255 254 245 246 257 265 272 273 279 285 289 292 296 299 299 300 301 300 296 297 295 283
202 214 218 222 224 228 232 233 235 229 219 213 215 219 221 219 225 228 232 244 258 255 256 255 253 257 267 269 276 282 284 286 285 288 289 292 294 296 296 293 294 291 280
159 171 177 192 212 226 230 229 219 221 214 218 219 213 218 222 227 229 234 249 255 256 257 256 260 264 271 277 278 276 268 275 282 287 290 292 295 296 296 295 294 289 287
164 163 166 175 187 198 205 209 220 229 224 222 222 224 225 224 229 232 246 250 252 249 253 259 264 268 271 276 281 281 282 285 289 293 293 294 295 296 295 294 294 294 292
143 144 154 168 183 195 207 222 223 228 233 233 226 226 227 227 234 248 247 253 256 251 250 253 258 264 269 272 276 280 287 291 294 296 297 297 295 294 295 295 295 296 292
149 148 160 171 183 195 204 212 217 220 229 236 238 242 249 251 247 242 247 247 244 241 248 253 258 262 266 273 282 288 294 299 301 301 301 302 302 300 298 297 298 296 292
165 166 173 184 190 190 191 203 210 210 218 225 229 232 235 238 239 239 238 239 242 248 250 251 254 262 273 282 288 294 299 302 304 305 308 312 312 309 304 300 299 296 295
163 170 176 187 189 193 199 206 212 219 223 227 229 227 230 230 234 233 237 247 245 245 248 254 264 272 277 283 290 294 297 301 306 310 313 314 314 313 313 309 301 301 301
163 172 180 184 183 189 199 206 215 218 220 223 222 222 223 228 231 238 251 247 246 249 257 263 266 273 280 285 288 293 298 306 311 312 315 314 313 310 313 312 309 305 304
191 195 202 208 212 214 216 218 219 221 225 227 229 231 234 241 245 241 243 247 253 256 257 263 269 275 279 283 290 297 304 307 307 309 312 315 314 314 314 313 313 311 309
206 209 213 218 220 224 227 229 230 231 234 235 236 240 241 243 246 246 247 246 247 252 256 260 264 268 275 282 290 295 301 302 302 304 309 311 311 310 308 309 310 308 308
221 217 218 220 224 227 229 230 232 235 237 238 239 239 242 243 246 249 249 250 253 253 254 256 261 266 273 280 285 292 298 300 299 302 305 304 304 304 304 305 305 304 303
233 234 237 238 237 236 235 235 235 235 236 237 238 241 248 248 247 249 252 254 254 256 256 256 259 265 268 273 282 288 294 296 297 300 301 300 300 298 299 300 301 301 298
240 241 239 239 237 236 236 235 236 238 240 242 244 247 249 250 250 252 253 255 254 254 255 257 257 257 262 272 280 288 294 297 297 297 298 299 299 296 295 295 295 294 293
244 244 244 244 246 249 249 249 249 249 249 250 250 249 249 250 250 250 250 252 253 255 259 261 261 261 264 268 274 282 290 293 294 295 296 296 297 293 291 288 288 286 287
254 257 259 260 260 260 261 261 259 256 254 252 251 251 252 253 254 255 255 255 255 256 259 261 263 264 263 264 268 274 280 285 288 291 294 296 297 294 289 287 284 284 283